Location: Bittelbronn
(48.4454°N, 8.5870°E)
Time: 14:17:12
(UTC+00:00)

Cosmos 1953 - Pass Details

Date: 09 August 2024
Orbit: 504 x 523 km, 82.5° (Epoch: 18 September)

Event Time Altitude Azimuth Distance (km) Brightness Sun altitude
Rises 03:25:17 0° 180° (S) 2,601 5.4 -7.5°
Reaches altitude 10° 03:27:24 10° 177° (S) 1,725 4.6 -7.2°
Maximum altitude 03:31:08 64° 96° (E) 575 2.7 -6.7°
Drops below altitude 10° 03:34:56 10° 15° (NNE) 1,755 5.7 -6.2°
Sets 03:37:06 0° 13° (NNE) 2,652 6.6 -5.9°
